Location: Beuvrequen
(50.8014°N, 1.6652°E)
Time: 01:27:11
(UTC+00:00)

IRAS dewar cover - Visible Passes

Search period start: 15 August 2022 00:00
Search period end: 25 August 2022 00:00
Orbit: 868 x 891 km, 98.9° (Epoch: 14 August)

Date Brightness Start Highest point End Pass type
(mag) Time Alt. Az. Time Alt. Az. Time Alt. Az.
15 Aug 9.5 03:31:44 10° ESE 03:36:37 30° ENE 03:41:32 10° N visible
16 Aug 9.6 03:28:29 10° ESE 03:33:17 29° ENE 03:38:07 10° N visible
17 Aug 9.7 03:25:13 10° ESE 03:29:57 28° ENE 03:34:42 10° N visible
18 Aug 9.7 03:21:58 10° ESE 03:26:37 27° ENE 03:31:16 10° N visible
19 Aug 9.8 03:18:43 10° ESE 03:23:17 25° ENE 03:27:51 10° N visible
20 Aug 9.9 03:15:29 10° ESE 03:19:57 24° NE 03:24:24 10° N visible
20 Aug 11.0 20:41:57 10° NNW 20:42:51 10° NW 20:43:44 10° NW visible
21 Aug 10.0 03:12:15 10° ESE 03:16:36 23° NE 03:20:59 10° N visible
21 Aug 10.9 20:38:09 10° NNW 20:39:33 11° NW 20:40:56 10° WNW visible
22 Aug 10.0 03:09:02 10° ESE 03:13:17 22° NE 03:17:32 10° N visible
22 Aug 10.8 20:34:29 10° NNW 20:36:13 11° NW 20:37:59 10° WNW visible
23 Aug 10.1 03:05:49 10° E 03:09:57 21° NE 03:14:06 10° N visible
23 Aug 10.7 20:30:52 10° NNW 20:32:55 12° NW 20:34:58 10° WNW visible
24 Aug 10.1 03:02:36 10° E 03:06:37 20° NE 03:10:38 10° N visible
24 Aug 10.7 20:27:17 10° NNW 20:29:36 13° NW 20:31:54 10° WNW visible
